Starlink 35932

operational
NORAD ID: 66526 Int'l Des: 2025-265 Owner: SPXS Country: US Constellation: starlink
LEOCIRCULAR

关于 Starlink 35932

正在加载描述...

实时位置

正在加载3D地球...

即将过境

高度历史

Altitude vs Time

uPlot chart will show altitude changes over time

两行轨道根数

1 66526U 25265L 26062.08114933 .00026044 00000-0 95244-3 0 9993
2 66526 43.0029 315.1846 0001150 290.1414 69.9314 15.27585549 16102
Epoch: Mar 3, 2026 • Age: 35 hours

当前状态

高度 481.7 km
速度 7.63 km/s
星下点 6.96°N, 11.51°W
发射日期 Nov 19, 2025
运行时间 0.2 years
类型 internet

技术详情

分类 Payload
质量 575.00 kg
干质量 530.00 kg
总质量 575.00 kg
长度 0.30 m
直径 4.10 m
跨度 29.00 m
形状 Box + pan
制造商 SPXS
平台类型 Starlink V2MO
阶段状态 In Orbit
所有者/国家 SPXS/US

大型星座

Loading constellations...